Time,TemperatureF,DewpointF,PressureIn,WindDirection,WindDirectionDegrees,WindSpeedMPH,WindSpeedGustMPH,Humidity,HourlyPrecipIn,Conditions,Clouds,dailyrainin,SolarRadiationWatts/m^2,SoftwareType,DateUTC
2013-04-23 00:01:00,54.6,37.8,30.02,East,90,3.5,3.5,53,0.00,CLR,,0.00,0.0,WeatherDisplay:10.37,2013-04-23 05:01:00,
2013-04-23 00:06:00,54.7,37.9,30.02,ESE,103,1.1,1.1,53,0.00,CLR,,0.00,0.0,WeatherDisplay:10.37,2013-04-23 05:06:00,
2013-04-23 00:11:00,54.8,38.0,30.02,SSE,166,3.5,3.5,53,0.00,CLR,,0.00,0.0,WeatherDisplay:10.37,2013-04-23 05:11:00,
2013-04-23 00:16:00,54.8,38.0,30.01,ESE,122,3.5,3.5,53,0.00,CLR,,0.00,0.0,WeatherDisplay:10.37,2013-04-23 05:16:00,
2013-04-23 00:21:00,55.0,38.2,30.01,SE,126,1.1,1.1,53,0.00,CLR,,0.00,0.0,WeatherDisplay:10.37,2013-04-23 05:21:00,
2013-04-23 00:26:00,55.0,38.2,30.01,South,171,3.5,3.5,53,0.00,CLR,,0.00,0.0,WeatherDisplay:10.37,2013-04-23 05:26:00,
2013-04-23 00:31:00,55.1,38.3,30.01,SSE,164,4.6,4.6,53,0.00,CLR,,0.00,0.0,WeatherDisplay:10.37,2013-04-23 05:31:00,
2013-04-23 00:36:00,55.1,38.7,30.01,SSE,153,2.3,2.3,54,0.00,CLR,,0.00,0.0,WeatherDisplay:10.37,2013-04-23 05:36:00,
2013-04-23 00:41:00,55.0,38.2,30.01,ESE,110,6.9,6.9,53,0.00,CLR,,0.00,0.0,WeatherDisplay:10.37,2013-04-23 05:41:00,
2013-04-23 00:48:00,55.0,38.2,30.01,SE,144,4.6,0.0,53,0.00,OVC,,0.00,0.0,WeatherDisplay:10.37,2013-04-23 05:48:00,
2013-04-23 00:53:00,54.9,38.1,30.00,ESE,121,1.1,1.1,53,0.00,CLR,,0.00,0.0,WeatherDisplay:10.37,2013-04-23 05:53:00,
2013-04-23 00:58:00,54.7,38.4,30.00,East,87,1.1,1.1,54,0.00,CLR,,0.00,0.0,WeatherDisplay:10.37,2013-04-23 05:58:00,
2013-04-23 01:03:00,54.6,38.3,30.00,SE,136,2.3,2.3,54,0.00,CLR,,0.00,0.0,WeatherDisplay:10.37,2013-04-23 06:03:00,
2013-04-23 01:08:00,54.5,38.2,30.00,SSW,192,1.1,0.0,54,0.00,CLR,,0.00,0.0,WeatherDisplay:10.37,2013-04-23 06:08:00,
2013-04-23 01:13:00,54.5,38.2,30.00,SSE,153,3.5,3.5,54,0.00,CLR,,0.00,0.0,WeatherDisplay:10.37,2013-04-23 06:13:00,
2013-04-23 01:18:00,54.4,38.6,29.99,SE,140,1.1,1.1,55,0.00,CLR,,0.00,0.0,WeatherDisplay:10.37,2013-04-23 06:18:00,
2013-04-23 01:23:00,54.3,38.5,29.99,SE,140,1.0,0.0,55,0.00,CLR,,0.00,0.0,WeatherDisplay:10.37,2013-04-23 06:23:00,
2013-04-23 01:28:00,54.2,38.4,29.99,South,183,3.5,3.5,55,0.00,CLR,,0.00,0.0,WeatherDisplay:10.37,2013-04-23 06:28:00,
2013-04-23 01:33:00,54.2,38.4,29.99,SSW,206,3.0,3.0,55,0.00,CLR,,0.00,0.0,WeatherDisplay:10.37,2013-04-23 06:33:00,
2013-04-23 01:38:00,54.2,38.4,29.99,SW,233,1.1,1.1,55,0.00,CLR,,0.00,0.0,WeatherDisplay:10.37,2013-04-23 06:38:00,
2013-04-23 01:43:00,54.2,38.8,29.99,SW,223,1.1,1.1,56,0.00,CLR,,0.00,0.0,WeatherDisplay:10.37,2013-04-23 06:43:00,
2013-04-23 01:48:00,54.1,38.7,29.99,SW,223,0.0,0.0,56,0.00,CLR,,0.00,0.0,WeatherDisplay:10.37,2013-04-23 06:48:00,
2013-04-23 01:53:00,53.9,39.0,29.98,SSW,199,3.5,0.0,57,0.00,CLR,,0.00,0.0,WeatherDisplay:10.37,2013-04-23 06:53:00,
2013-04-23 01:58:00,53.7,38.8,29.98,SSW,199,2.3,0.0,57,0.00,CLR,,0.00,0.0,WeatherDisplay:10.37,2013-04-23 06:58:00,
2013-04-23 02:03:00,53.6,39.2,29.98,SSW,199,0.0,0.1,58,0.00,CLR,,0.00,0.0,WeatherDisplay:10.37,2013-04-23 07:03:00,
2013-04-23 02:08:00,53.5,39.9,29.99,SSW,209,1.1,1.1,60,0.00,CLR,,0.00,0.0,WeatherDisplay:10.37,2013-04-23 07:08:00,
2013-04-23 02:13:00,53.1,40.0,29.99,WSW,249,3.5,3.5,61,0.00,CLR,,0.00,0.0,WeatherDisplay:10.37,2013-04-23 07:13:00,
2013-04-23 02:18:00,52.8,40.5,29.99,WSW,249,0.0,0.0,63,0.00,CLR,,0.00,0.0,WeatherDisplay:10.37,2013-04-23 07:18:00,
2013-04-23 02:23:00,52.5,40.7,29.99,WSW,249,2.0,2.0,64,0.00,CLR,,0.00,0.0,WeatherDisplay:10.37,2013-04-23 07:23:00,
2013-04-23 02:28:00,52.3,40.5,29.99,WSW,249,2.0,2.0,64,0.00,CLR,,0.00,0.0,WeatherDisplay:10.37,2013-04-23 07:28:00,
2013-04-23 02:33:00,52.2,40.4,29.98,SSW,197,1.1,1.1,64,0.00,CLR,,0.00,0.0,WeatherDisplay:10.37,2013-04-23 07:33:00,
2013-04-23 02:38:00,52.1,40.7,29.98,South,188,0.0,0.0,65,0.00,CLR,,0.00,0.0,WeatherDisplay:10.37,2013-04-23 07:38:00,
2013-04-23 02:43:00,52.1,41.5,29.98,SSW,204,3.5,3.5,67,0.00,CLR,,0.00,0.0,WeatherDisplay:10.37,2013-04-23 07:43:00,
2013-04-23 02:48:00,52.1,42.2,29.97,South,188,0.0,0.0,69,0.00,CLR,,0.00,0.0,WeatherDisplay:10.37,2013-04-23 07:48:00,
2013-04-23 02:53:00,52.0,42.9,29.97,SSW,210,4.6,4.6,71,0.00,CLR,,0.00,0.0,WeatherDisplay:10.37,2013-04-23 07:53:00,
2013-04-23 02:58:00,51.9,43.5,29.97,SW,219,0.0,0.0,73,0.00,CLR,,0.00,0.0,WeatherDisplay:10.37,2013-04-23 07:58:00,
2013-04-23 03:03:00,51.8,44.1,29.96,SSW,209,0.0,0.0,75,0.00,CLR,,0.00,0.0,WeatherDisplay:10.37,2013-04-23 08:03:00,
2013-04-23 03:08:00,51.7,44.4,29.96,SSW,209,0.0,0.0,76,0.00,CLR,,0.00,0.0,WeatherDisplay:10.37,2013-04-23 08:08:00,
2013-04-23 03:13:00,51.6,45.0,29.95,SSE,148,0.0,0.0,78,0.00,CLR,,0.00,0.0,WeatherDisplay:10.37,2013-04-23 08:13:00,
2013-04-23 03:18:00,51.4,45.1,29.95,SSE,149,0.0,0.0,79,0.00,CLR,,0.00,0.0,WeatherDisplay:10.37,2013-04-23 08:18:00,
2013-04-23 03:23:00,51.2,45.2,29.95,SSE,149,0.0,0.0,80,0.00,CLR,,0.00,0.0,WeatherDisplay:10.37,2013-04-23 08:23:00,
2013-04-23 03:28:00,51.0,45.4,29.95,SSE,149,2.0,2.0,81,0.00,CLR,,0.00,0.0,WeatherDisplay:10.37,2013-04-23 08:28:00,
2013-04-23 03:33:00,50.8,45.5,29.95,SE,142,1.1,0.0,82,0.00,CLR,,0.00,0.0,WeatherDisplay:10.37,2013-04-23 08:33:00,
2013-04-23 03:38:00,50.7,45.4,29.96,SE,144,1.1,1.1,82,0.00,CLR,,0.00,0.0,WeatherDisplay:10.37,2013-04-23 08:38:00,
2013-04-23 03:43:00,50.6,45.6,29.95,SW,228,4.6,4.6,83,0.00,CLR,,0.00,0.0,WeatherDisplay:10.37,2013-04-23 08:43:00,
2013-04-23 03:48:00,50.5,45.5,29.94,SW,217,0.0,0.0,83,0.00,CLR,,0.00,0.0,WeatherDisplay:10.37,2013-04-23 08:48:00,
2013-04-23 03:53:00,50.4,45.7,29.94,SW,217,0.0,0.0,84,0.00,CLR,,0.00,0.0,WeatherDisplay:10.37,2013-04-23 08:53:00,
2013-04-23 03:58:00,50.3,45.6,29.94,SSW,198,1.1,1.1,84,0.00,CLR,,0.00,0.0,WeatherDisplay:10.37,2013-04-23 08:58:00,
2013-04-23 04:03:00,50.2,45.6,29.94,SE,133,0.0,0.0,84,0.00,CLR,,0.00,0.0,WeatherDisplay:10.37,2013-04-23 09:03:00,
2013-04-23 04:08:00,50.2,45.9,29.93,SSE,154,1.1,0.0,85,0.00,CLR,,0.00,0.0,WeatherDisplay:10.37,2013-04-23 09:08:00,
2013-04-23 04:13:00,50.1,45.8,29.92,SSE,154,0.0,0.0,85,0.00,CLR,,0.00,0.0,WeatherDisplay:10.37,2013-04-23 09:13:00,
2013-04-23 04:18:00,50.0,45.7,29.92,SSW,206,0.0,0.0,85,0.00,CLR,,0.00,0.0,WeatherDisplay:10.37,2013-04-23 09:18:00,
2013-04-23 04:23:00,49.9,45.9,29.92,SW,227,0.0,0.0,86,0.00,CLR,,0.00,0.0,WeatherDisplay:10.37,2013-04-23 09:23:00,
2013-04-23 04:28:00,49.8,45.8,29.92,SSW,212,2.3,2.3,86,0.00,CLR,,0.00,0.0,WeatherDisplay:10.37,2013-04-23 09:28:00,
2013-04-23 04:33:00,49.8,45.8,29.93,SSW,211,1.1,1.1,86,0.00,CLR,,0.00,0.0,WeatherDisplay:10.37,2013-04-23 09:33:00,
2013-04-23 04:38:00,49.7,46.0,29.93,SSW,211,2.0,2.0,87,0.00,CLR,,0.00,0.0,WeatherDisplay:10.37,2013-04-23 09:38:00,
2013-04-23 04:43:00,49.7,46.0,29.93,SW,231,2.0,2.0,87,0.00,CLR,,0.00,0.0,WeatherDisplay:10.37,2013-04-23 09:43:00,
2013-04-23 04:48:00,49.6,45.9,29.93,SW,231,1.1,1.1,87,0.00,CLR,,0.00,0.0,WeatherDisplay:10.37,2013-04-23 09:48:00,
2013-04-23 04:53:00,49.6,45.9,29.93,SW,223,3.5,3.5,87,0.00,CLR,,0.00,0.0,WeatherDisplay:10.37,2013-04-23 09:53:00,
2013-04-23 04:58:00,49.5,45.8,29.92,SW,223,1.1,0.0,87,0.00,CLR,,0.00,0.0,WeatherDisplay:10.37,2013-04-23 09:58:00,
2013-04-23 05:03:00,49.4,45.7,29.92,SW,223,0.0,0.0,87,0.00,CLR,,0.00,0.0,WeatherDisplay:10.37,2013-04-23 10:03:00,
2013-04-23 05:08:00,49.3,45.9,29.92,SW,223,1.0,0.0,88,0.00,CLR,,0.00,0.0,WeatherDisplay:10.37,2013-04-23 10:08:00,
2013-04-23 05:13:00,49.3,45.9,29.92,SW,223,1.1,1.1,88,0.00,CLR,,0.00,0.0,WeatherDisplay:10.37,2013-04-23 10:13:00,
2013-04-23 05:18:00,49.2,45.8,29.91,SW,223,0.0,0.0,88,0.00,CLR,,0.00,0.0,WeatherDisplay:10.37,2013-04-23 10:18:00,
2013-04-23 05:23:00,49.1,45.7,29.91,SW,223,0.0,0.0,88,0.00,CLR,,0.00,0.0,WeatherDisplay:10.37,2013-04-23 10:23:00,
2013-04-23 05:28:00,49.1,45.7,29.89,SW,223,0.0,0.0,88,0.00,OVC,,0.00,0.0,WeatherDisplay:10.37,2013-04-23 10:28:00,
2013-04-23 05:33:00,49.0,45.6,29.88,SW,223,0.0,0.0,88,0.00,OVC,,0.00,0.0,WeatherDisplay:10.37,2013-04-23 10:33:00,
2013-04-23 05:38:00,48.9,45.5,29.89,SW,223,0.0,0.0,88,0.00,OVC,,0.00,0.0,WeatherDisplay:10.37,2013-04-23 10:38:00,
2013-04-23 05:43:00,48.8,45.7,29.90,SW,223,0.0,0.0,89,0.00,OVC,,0.00,0.0,WeatherDisplay:10.37,2013-04-23 10:43:00,
2013-04-23 05:48:00,48.7,45.6,29.91,SW,223,0.0,0.0,89,0.00,OVC,,0.00,0.0,WeatherDisplay:10.37,2013-04-23 10:48:00,
2013-04-23 05:53:00,48.7,45.6,29.92,SW,223,0.0,0.0,89,0.00,OVC,,0.00,0.0,WeatherDisplay:10.37,2013-04-23 10:53:00,
2013-04-23 05:58:00,48.8,45.7,29.92,SW,223,3.5,3.5,89,0.00,OVC,,0.00,0.0,WeatherDisplay:10.37,2013-04-23 10:58:00,
2013-04-23 06:03:00,48.9,45.8,29.92,SW,223,0.0,0.0,89,0.00,OVC,,0.00,0.0,WeatherDisplay:10.37,2013-04-23 11:03:00,
2013-04-23 06:08:00,48.9,46.1,29.92,SSW,194,1.0,0.0,90,0.00,OVC,,0.00,0.0,WeatherDisplay:10.37,2013-04-23 11:08:00,
2013-04-23 06:13:00,49.1,46.3,29.92,WSW,245,3.5,3.5,90,0.00,OVC,,0.00,0.0,WeatherDisplay:10.37,2013-04-23 11:13:00,
2013-04-23 06:18:00,49.1,46.3,29.92,SW,219,1.1,0.0,90,0.00,OVC,,0.00,0.0,WeatherDisplay:10.37,2013-04-23 11:18:00,
2013-04-23 06:23:00,49.3,46.5,29.93,WSW,239,1.1,1.1,90,0.00,OVC,,0.00,0.0,WeatherDisplay:10.37,2013-04-23 11:23:00,
2013-04-23 06:28:00,49.5,46.7,29.93,West,271,4.6,4.6,90,0.00,BKN,,0.00,5.0,WeatherDisplay:10.37,2013-04-23 11:28:00,
2013-04-23 06:33:00,49.5,46.7,29.92,West,265,1.1,0.0,90,0.00,BKN,,0.00,7.0,WeatherDisplay:10.37,2013-04-23 11:33:00,
2013-04-23 06:38:00,49.6,46.8,29.92,West,265,1.1,1.1,90,0.00,BKN,,0.00,9.0,WeatherDisplay:10.37,2013-04-23 11:38:00,
2013-04-23 06:43:00,49.7,46.9,29.92,WSW,246,4.6,4.6,90,0.00,BKN,,0.00,9.0,WeatherDisplay:10.37,2013-04-23 11:43:00,
2013-04-23 06:48:00,49.9,47.1,29.92,SW,234,4.6,4.6,90,0.00,BKN,,0.00,14.0,WeatherDisplay:10.37,2013-04-23 11:48:00,
2013-04-23 06:53:00,50.0,47.2,29.92,SW,234,1.1,0.0,90,0.00,BKN,,0.00,12.0,WeatherDisplay:10.37,2013-04-23 11:53:00,
2013-04-23 06:58:00,50.1,47.3,29.92,West,278,3.5,3.5,90,0.00,BKN,,0.00,12.0,WeatherDisplay:10.37,2013-04-23 11:58:00,
2013-04-23 07:03:00,50.1,47.3,29.92,West,278,3.5,3.5,90,0.00,BKN,,0.00,14.0,WeatherDisplay:10.37,2013-04-23 12:03:00,
2013-04-23 07:08:00,50.1,47.3,29.92,WSW,242,2.3,0.0,90,0.00,BKN,,0.00,18.0,WeatherDisplay:10.37,2013-04-23 12:08:00,
2013-04-23 07:13:00,50.1,47.3,29.92,WSW,242,2.3,2.3,90,0.00,BKN,,0.00,14.0,WeatherDisplay:10.37,2013-04-23 12:13:00,
2013-04-23 07:18:00,50.1,47.3,29.92,WSW,242,1.1,0.0,90,0.00,BKN,,0.00,16.0,WeatherDisplay:10.37,2013-04-23 12:18:00,
2013-04-23 07:23:00,50.1,47.3,29.91,SSW,194,3.0,3.0,90,0.00,BKN,,0.00,33.0,WeatherDisplay:10.37,2013-04-23 12:23:00,
2013-04-23 07:28:00,50.1,47.3,29.91,West,260,1.1,1.1,90,0.00,BKN,,0.00,33.0,WeatherDisplay:10.37,2013-04-23 12:28:00,
2013-04-23 07:33:00,50.1,47.3,29.92,West,264,0.0,0.0,90,0.00,BKN,,0.00,25.0,WeatherDisplay:10.37,2013-04-23 12:33:00,
2013-04-23 07:38:00,50.1,47.3,29.92,SW,224,1.1,1.1,90,0.00,BKN,,0.00,28.0,WeatherDisplay:10.37,2013-04-23 12:38:00,
2013-04-23 07:43:00,50.1,47.6,29.92,WNW,294,0.0,0.0,91,0.00,BKN,,0.00,84.0,WeatherDisplay:10.37,2013-04-23 12:43:00,
2013-04-23 07:48:00,50.2,47.7,29.92,SW,215,3.5,3.5,91,0.00,BKN,,0.00,97.0,WeatherDisplay:10.37,2013-04-23 12:48:00,
2013-04-23 07:53:00,50.4,47.9,29.92,SW,236,1.1,1.1,91,0.00,BKN,,0.00,83.0,WeatherDisplay:10.37,2013-04-23 12:53:00,
2013-04-23 07:58:00,50.6,47.8,29.91,South,191,3.5,3.5,90,0.00,BKN,,0.00,113.0,WeatherDisplay:10.37,2013-04-23 12:58:00,
2013-04-23 08:03:00,50.8,48.3,29.91,West,265,1.1,0.0,91,0.00,BKN,,0.00,113.0,WeatherDisplay:10.37,2013-04-23 13:03:00,
2013-04-23 08:08:00,51.0,48.2,29.91,WNW,282,4.6,4.6,90,0.00,BKN,,0.00,100.0,WeatherDisplay:10.37,2013-04-23 13:08:00,
2013-04-23 08:13:00,51.1,48.3,29.91,South,169,4.6,4.6,90,0.00,BKN,,0.00,144.0,WeatherDisplay:10.37,2013-04-23 13:13:00,
2013-04-23 08:18:00,51.3,48.5,29.92,SW,229,5.8,5.8,90,0.00,BKN,,0.00,141.0,WeatherDisplay:10.37,2013-04-23 13:18:00,
2013-04-23 08:23:00,51.5,48.7,29.92,SW,218,2.0,2.0,90,0.00,BKN,,0.00,135.0,WeatherDisplay:10.37,2013-04-23 13:23:00,
2013-04-23 08:28:00,51.6,48.5,29.92,SW,233,1.1,0.0,89,0.00,BKN,,0.00,151.0,WeatherDisplay:10.37,2013-04-23 13:28:00,
2013-04-23 08:33:00,51.8,48.7,29.92,West,260,3.5,3.5,89,0.00,BKN,,0.00,144.0,WeatherDisplay:10.37,2013-04-23 13:33:00,
2013-04-23 08:38:00,52.0,48.9,29.92,SW,236,7.0,7.0,89,0.00,BKN,,0.00,202.0,WeatherDisplay:10.37,2013-04-23 13:38:00,
2013-04-23 08:43:00,52.3,48.9,29.92,WSW,250,8.0,8.0,88,0.00,BKN,,0.00,202.0,WeatherDisplay:10.37,2013-04-23 13:43:00,
2013-04-23 08:48:00,52.4,48.6,29.92,WSW,250,3.5,3.5,87,0.00,BKN,,0.00,160.0,WeatherDisplay:10.37,2013-04-23 13:48:00,
2013-04-23 08:53:00,52.5,48.7,29.92,WNW,293,5.8,5.8,87,0.00,BKN,,0.00,113.0,WeatherDisplay:10.37,2013-04-23 13:53:00,
2013-04-23 08:58:00,52.5,48.7,29.92,WSW,244,1.1,1.1,87,0.00,BKN,,0.00,98.0,WeatherDisplay:10.37,2013-04-23 13:58:00,
2013-04-23 09:03:00,52.3,48.2,29.92,SW,221,6.9,6.9,86,0.00,BKN,,0.00,62.0,WeatherDisplay:10.37,2013-04-23 14:03:00,
2013-04-23 09:08:00,52.3,48.2,29.92,West,275,4.0,4.0,86,0.00,BKN,,0.00,121.0,WeatherDisplay:10.37,2013-04-23 14:08:00,
2013-04-23 09:13:00,52.4,48.3,29.92,South,186,4.6,4.6,86,0.00,BKN,,0.00,144.0,WeatherDisplay:10.37,2013-04-23 14:13:00,
2013-04-23 09:18:00,52.6,48.5,29.91,West,269,6.9,6.9,86,0.00,BKN,,0.00,186.0,WeatherDisplay:10.37,2013-04-23 14:18:00,
2013-04-23 09:23:00,52.6,48.2,29.92,West,279,1.1,1.1,85,0.00,BKN,,0.00,32.0,WeatherDisplay:10.37,2013-04-23 14:23:00,
2013-04-23 09:28:00,51.6,46.6,29.91,WNW,292,2.3,2.3,83,0.00,BKN,,0.00,81.0,WeatherDisplay:10.37,2013-04-23 14:28:00,
2013-04-23 09:33:00,50.6,45.6,29.91,NE,52,3.5,3.5,83,0.00,BKN,,0.00,125.0,WeatherDisplay:10.37,2013-04-23 14:33:00,
2013-04-23 09:38:00,49.9,44.9,29.91,SW,235,0.0,0.0,83,0.00,BKN,,0.00,86.0,WeatherDisplay:10.37,2013-04-23 14:38:00,
2013-04-23 09:43:00,49.5,44.9,29.91,SW,235,0.0,0.0,84,0.00,BKN,,0.00,132.0,WeatherDisplay:10.37,2013-04-23 14:43:00,
2013-04-23 09:48:00,49.3,45.0,29.91,SW,235,0.0,0.0,85,0.00,BKN,,0.00,121.0,WeatherDisplay:10.37,2013-04-23 14:48:00,
2013-04-23 09:53:00,48.8,44.2,29.91,North,1,0.0,0.0,84,0.00,BKN,,0.00,188.0,WeatherDisplay:10.37,2013-04-23 14:53:00,
2013-04-23 09:58:00,48.5,43.9,29.92,NNE,19,1.1,1.1,84,0.00,BKN,,0.00,137.0,WeatherDisplay:10.37,2013-04-23 14:58:00,
2013-04-23 10:03:00,48.1,43.5,29.93,NW,326,3.5,3.5,84,0.00,BKN,,0.00,95.0,WeatherDisplay:10.37,2013-04-23 15:03:00,
2013-04-23 10:08:00,47.7,43.1,29.93,WNW,288,0.0,0.0,84,0.00,BKN,,0.00,76.0,WeatherDisplay:10.37,2013-04-23 15:08:00,
2013-04-23 10:13:00,47.3,43.0,29.93,WNW,288,0.0,0.0,85,0.00,BKN,,0.00,77.0,WeatherDisplay:10.37,2013-04-23 15:13:00,
2013-04-23 10:18:00,47.1,42.8,29.93,West,260,3.5,3.5,85,0.00,BKN,,0.00,58.0,WeatherDisplay:10.37,2013-04-23 15:18:00,
2013-04-23 10:23:00,46.6,42.0,29.93,NNW,328,2.3,2.3,84,0.00,BKN,,0.00,81.0,WeatherDisplay:10.37,2013-04-23 15:23:00,
2013-04-23 10:28:00,46.0,41.4,29.94,WSW,244,2.0,2.0,84,0.00,BKN,,0.00,86.0,WeatherDisplay:10.37,2013-04-23 15:28:00,
2013-04-23 10:33:00,45.5,40.9,29.94,NNE,26,0.0,0.0,84,0.00,BKN,,0.00,90.0,WeatherDisplay:10.37,2013-04-23 15:33:00,
2013-04-23 10:38:00,45.0,40.1,29.95,NW,314,0.0,0.0,83,0.00,BKN,,0.00,90.0,WeatherDisplay:10.37,2013-04-23 15:38:00,
2013-04-23 10:43:00,44.6,40.1,29.95,WNW,295,2.0,2.0,84,0.00,BKN,,0.00,100.0,WeatherDisplay:10.37,2013-04-23 15:43:00,
2013-04-23 10:48:00,44.3,39.8,29.96,NNE,31,1.1,1.1,84,0.00,BKN,,0.00,86.0,WeatherDisplay:10.37,2013-04-23 15:48:00,
2013-04-23 10:53:00,43.8,39.3,29.96,NW,306,0.0,0.0,84,0.00,BKN,,0.00,72.0,WeatherDisplay:10.37,2013-04-23 15:53:00,
2013-04-23 10:58:00,43.4,39.2,29.96,WSW,253,3.5,3.5,85,0.00,BKN,,0.00,69.0,WeatherDisplay:10.37,2013-04-23 15:58:00,
2013-04-23 11:03:00,43.0,38.8,29.97,WSW,253,0.0,0.0,85,0.00,BKN,,0.00,60.0,WeatherDisplay:10.37,2013-04-23 16:03:00,
2013-04-23 11:08:00,42.3,38.1,29.96,NNW,334,3.5,3.5,85,0.00,BKN,,0.00,54.0,WeatherDisplay:10.37,2013-04-23 16:08:00,
2013-04-23 11:13:00,41.9,38.0,29.96,NNW,334,0.0,0.0,86,0.01,RA,,0.01,51.0,WeatherDisplay:10.37,2013-04-23 16:13:00,
2013-04-23 11:18:00,41.7,38.1,29.96,NW,313,0.0,0.0,87,0.01,RA,,0.01,63.0,WeatherDisplay:10.37,2013-04-23 16:18:00,
2013-04-23 11:23:00,41.3,37.7,29.96,NNE,26,2.0,2.0,87,0.01,BKN,,0.01,83.0,WeatherDisplay:10.37,2013-04-23 16:23:00,
2013-04-23 11:28:00,40.7,37.1,29.96,West,261,1.1,1.1,87,0.01,BKN,,0.01,90.0,WeatherDisplay:10.37,2013-04-23 16:28:00,
2013-04-23 11:33:00,40.4,37.1,29.96,NNW,335,0.0,0.0,88,0.02,RA,,0.02,79.0,WeatherDisplay:10.37,2013-04-23 16:33:00,
2013-04-23 11:38:00,40.3,37.0,29.96,West,277,2.3,2.3,88,0.02,RA,,0.02,93.0,WeatherDisplay:10.37,2013-04-23 16:38:00,
2013-04-23 11:43:00,40.0,36.7,29.96,WNW,302,0.0,0.0,88,0.02,BKN,,0.02,114.0,WeatherDisplay:10.37,2013-04-23 16:43:00,
2013-04-23 11:48:00,39.9,36.9,29.96,West,271,4.0,4.0,89,0.02,BKN,,0.03,91.0,WeatherDisplay:10.37,2013-04-23 16:48:00,
2013-04-23 11:53:00,39.9,36.9,29.96,NNW,347,3.5,3.5,89,0.03,RA,,0.03,90.0,WeatherDisplay:10.37,2013-04-23 16:53:00,
2013-04-23 11:58:00,39.7,36.7,29.96,NNW,344,2.3,0.0,89,0.03,RA,,0.03,95.0,WeatherDisplay:10.37,2013-04-23 16:58:00,
2013-04-23 12:03:00,39.9,37.2,29.96,North,353,0.0,0.0,90,0.03,BKN,,0.03,100.0,WeatherDisplay:10.37,2013-04-23 17:03:00,
2013-04-23 12:08:00,39.9,37.2,29.96,ENE,66,0.0,0.0,90,0.03,BKN,,0.03,105.0,WeatherDisplay:10.37,2013-04-23 17:08:00,
2013-04-23 12:13:00,39.9,37.2,29.96,NNW,331,1.1,0.0,90,0.03,RA,,0.04,95.0,WeatherDisplay:10.37,2013-04-23 17:13:00,
2013-04-23 12:18:00,39.8,37.1,29.96,North,6,3.5,3.5,90,0.03,RA,,0.04,88.0,WeatherDisplay:10.37,2013-04-23 17:18:00,
2013-04-23 12:23:00,39.6,36.9,29.96,ENE,59,3.5,3.5,90,0.04,RA,,0.05,72.0,WeatherDisplay:10.37,2013-04-23 17:23:00,
2013-04-23 12:28:00,39.5,36.8,29.96,NNW,340,1.1,1.1,90,0.04,RA,,0.05,69.0,WeatherDisplay:10.37,2013-04-23 17:28:00,
2013-04-23 12:33:00,39.4,36.7,29.96,West,272,0.0,0.2,90,0.03,BKN,,0.05,63.0,WeatherDisplay:10.37,2013-04-23 17:33:00,
2013-04-23 12:38:00,39.6,37.2,29.96,West,271,1.1,1.1,91,0.04,RA,,0.06,67.0,WeatherDisplay:10.37,2013-04-23 17:38:00,
2013-04-23 12:43:00,39.7,37.3,29.96,North,356,2.3,2.3,91,0.04,RA,,0.06,70.0,WeatherDisplay:10.37,2013-04-23 17:43:00,
2013-04-23 12:48:00,39.6,37.2,29.96,NNW,346,0.0,0.0,91,0.05,RA,,0.07,62.0,WeatherDisplay:10.37,2013-04-23 17:48:00,
2013-04-23 12:53:00,39.6,37.2,29.96,North,352,2.3,2.3,91,0.05,RA,,0.08,67.0,WeatherDisplay:10.37,2013-04-23 17:53:00,
2013-04-23 12:58:00,39.4,37.0,29.96,NW,324,0.0,0.0,91,0.05,RA,,0.08,63.0,WeatherDisplay:10.37,2013-04-23 17:58:00,
2013-04-23 13:03:00,39.3,36.9,29.96,NW,319,0.0,0.0,91,0.06,RA,,0.09,72.0,WeatherDisplay:10.37,2013-04-23 18:03:00,
2013-04-23 13:08:00,39.2,36.8,29.96,West,261,1.1,0.0,91,0.07,RA,,0.10,65.0,WeatherDisplay:10.37,2013-04-23 18:08:00,
2013-04-23 13:13:00,39.2,36.8,29.95,West,259,0.0,0.0,91,0.06,RA,,0.10,65.0,WeatherDisplay:10.37,2013-04-23 18:13:00,
2013-04-23 13:18:00,39.1,36.7,29.96,WNW,290,3.5,3.5,91,0.07,RA,,0.11,58.0,WeatherDisplay:10.37,2013-04-23 18:18:00,
2013-04-23 13:23:00,38.9,36.8,29.96,NE,36,2.0,0.0,92,0.07,RA,,0.12,53.0,WeatherDisplay:10.37,2013-04-23 18:23:00,
2013-04-23 13:28:00,38.7,36.6,29.95,West,279,3.5,3.5,92,0.07,RA,,0.12,51.0,WeatherDisplay:10.37,2013-04-23 18:28:00,
2013-04-23 13:33:00,38.5,36.4,29.95,North,4,1.1,0.0,92,0.08,RA,,0.13,72.0,WeatherDisplay:10.37,2013-04-23 18:33:00,
2013-04-23 13:38:00,38.5,36.4,29.95,WSW,256,0.0,0.0,92,0.07,RA,,0.13,83.0,WeatherDisplay:10.37,2013-04-23 18:38:00,
2013-04-23 13:43:00,38.6,36.5,29.95,South,190,1.1,1.1,92,0.08,RA,,0.14,83.0,WeatherDisplay:10.37,2013-04-23 18:43:00,
2013-04-23 13:48:00,38.5,36.4,29.95,NW,307,1.1,1.1,92,0.07,RA,,0.14,72.0,WeatherDisplay:10.37,2013-04-23 18:48:00,
2013-04-23 13:53:00,38.3,36.2,29.95,NW,315,0.0,0.0,92,0.07,RA,,0.15,60.0,WeatherDisplay:10.37,2013-04-23 18:53:00,
2013-04-23 13:58:00,38.4,36.3,29.95,WSW,250,1.0,0.0,92,0.08,RA,,0.16,51.0,WeatherDisplay:10.37,2013-04-23 18:58:00,
2013-04-23 14:03:00,38.4,36.3,29.95,NE,36,3.5,0.0,92,0.07,RA,,0.16,49.0,WeatherDisplay:10.37,2013-04-23 19:03:00,
2013-04-23 14:08:00,38.3,36.2,29.96,NW,325,1.1,0.0,92,0.07,RA,,0.17,49.0,WeatherDisplay:10.37,2013-04-23 19:08:00,
2013-04-23 14:13:00,38.3,36.2,29.96,WSW,250,0.0,0.0,92,0.08,RA,,0.18,60.0,WeatherDisplay:10.37,2013-04-23 19:13:00,
2013-04-23 14:18:00,38.4,36.6,29.95,NNE,31,0.0,0.0,93,0.08,RA,,0.19,88.0,WeatherDisplay:10.37,2013-04-23 19:18:00,
2013-04-23 14:23:00,38.4,36.6,29.96,NNW,340,3.0,3.0,93,0.08,RA,,0.20,86.0,WeatherDisplay:10.37,2013-04-23 19:23:00,
2013-04-23 14:28:00,38.3,36.5,29.96,North,352,0.0,0.4,93,0.08,RA,,0.20,70.0,WeatherDisplay:10.37,2013-04-23 19:28:00,
2013-04-23 14:33:00,38.1,36.3,29.96,North,352,0.0,0.0,93,0.08,RA,,0.21,81.0,WeatherDisplay:10.37,2013-04-23 19:33:00,
2013-04-23 14:38:00,37.9,36.1,29.96,North,360,1.1,1.1,93,0.09,RA,,0.22,76.0,WeatherDisplay:10.37,2013-04-23 19:38:00,
2013-04-23 14:43:00,37.9,36.1,29.96,North,359,1.1,0.0,93,0.08,RA,,0.22,81.0,WeatherDisplay:10.37,2013-04-23 19:43:00,
2013-04-23 14:48:00,37.8,36.0,29.95,North,358,0.0,0.0,93,0.09,RA,,0.23,109.0,WeatherDisplay:10.37,2013-04-23 19:48:00,
2013-04-23 14:53:00,37.6,35.8,29.95,North,358,1.1,1.1,93,0.08,RA,,0.23,116.0,WeatherDisplay:10.37,2013-04-23 19:53:00,
2013-04-23 14:58:00,37.5,35.7,29.95,SW,223,1.0,1.0,93,0.08,RA,,0.24,120.0,WeatherDisplay:10.37,2013-04-23 19:58:00,
2013-04-23 15:03:00,37.5,35.7,29.95,SW,223,0.0,0.0,93,0.09,RA,,0.25,88.0,WeatherDisplay:10.37,2013-04-23 20:03:00,
2013-04-23 15:08:00,37.6,35.8,29.95,West,263,3.5,3.5,93,0.08,RA,,0.25,116.0,WeatherDisplay:10.37,2013-04-23 20:08:00,
2013-04-23 15:13:00,37.3,35.5,29.95,NNW,342,3.5,3.5,93,0.07,BKN,,0.25,111.0,WeatherDisplay:10.37,2013-04-23 20:13:00,
2013-04-23 15:18:00,37.0,35.2,29.95,North,354,0.0,0.0,93,0.07,RA,,0.26,104.0,WeatherDisplay:10.37,2013-04-23 20:18:00,
2013-04-23 15:23:00,36.9,35.1,29.95,NNW,337,0.0,0.0,93,0.06,RA,,0.26,77.0,WeatherDisplay:10.37,2013-04-23 20:23:00,
2013-04-23 15:28:00,36.9,35.1,29.95,NNW,337,0.0,0.0,93,0.06,BKN,,0.26,70.0,WeatherDisplay:10.37,2013-04-23 20:28:00,
2013-04-23 15:33:00,36.9,35.1,29.95,NNW,337,0.0,0.0,93,0.05,BKN,,0.26,81.0,WeatherDisplay:10.37,2013-04-23 20:33:00,
2013-04-23 15:38:00,37.1,35.3,29.96,NNW,337,0.0,0.0,93,0.05,RA,,0.27,93.0,WeatherDisplay:10.37,2013-04-23 20:38:00,
2013-04-23 15:43:00,37.1,35.3,29.96,NNW,337,0.0,0.0,93,0.05,RA,,0.27,65.0,WeatherDisplay:10.37,2013-04-23 20:43:00,
2013-04-23 15:48:00,37.1,35.3,29.96,North,11,2.3,2.3,93,0.04,BKN,,0.27,109.0,WeatherDisplay:10.37,2013-04-23 20:48:00,
2013-04-23 15:53:00,37.1,35.3,29.95,NNW,329,0.0,0.0,93,0.05,RA,,0.28,114.0,WeatherDisplay:10.37,2013-04-23 20:53:00,
2013-04-23 15:58:00,37.3,35.7,29.96,NNW,339,0.0,0.0,94,0.05,RA,,0.29,90.0,WeatherDisplay:10.37,2013-04-23 20:58:00,
2013-04-23 16:03:00,37.3,35.7,29.96,North,357,1.1,0.0,94,0.04,RA,,0.29,56.0,WeatherDisplay:10.37,2013-04-23 21:03:00,
2013-04-23 16:08:00,37.1,35.3,29.96,NNW,337,1.1,1.1,93,0.04,BKN,,0.29,56.0,WeatherDisplay:10.37,2013-04-23 21:08:00,
2013-04-23 16:13:00,37.1,35.3,29.96,NNW,335,0.0,0.0,93,0.04,BKN,,0.29,53.0,WeatherDisplay:10.37,2013-04-23 21:13:00,
2013-04-23 16:18:00,37.2,35.6,29.96,WNW,296,0.0,0.0,94,0.03,BKN,,0.29,67.0,WeatherDisplay:10.37,2013-04-23 21:18:00,
2013-04-23 16:23:00,37.4,35.8,29.96,NNW,327,0.0,0.0,94,0.03,BKN,,0.29,56.0,WeatherDisplay:10.37,2013-04-23 21:23:00,
2013-04-23 16:28:00,37.6,36.0,29.96,NW,326,0.0,0.0,94,0.04,RA,,0.30,51.0,WeatherDisplay:10.37,2013-04-23 21:28:00,
2013-04-23 16:33:00,37.9,36.3,29.95,NNW,327,0.0,0.0,94,0.04,RA,,0.30,83.0,WeatherDisplay:10.37,2013-04-23 21:33:00,
2013-04-23 16:38:00,38.1,36.5,29.95,West,272,0.0,0.0,94,0.03,BKN,,0.30,116.0,WeatherDisplay:10.37,2013-04-23 21:38:00,
2013-04-23 16:43:00,38.2,36.6,29.96,South,170,0.0,0.0,94,0.03,BKN,,0.30,83.0,WeatherDisplay:10.37,2013-04-23 21:43:00,
2013-04-23 16:48:00,38.2,36.6,29.95,North,5,3.5,3.5,94,0.04,RA,,0.31,69.0,WeatherDisplay:10.37,2013-04-23 21:48:00,
2013-04-23 16:53:00,38.1,36.5,29.95,WNW,302,2.3,2.3,94,0.03,RA,,0.31,77.0,WeatherDisplay:10.37,2013-04-23 21:53:00,
2013-04-23 16:58:00,37.9,36.3,29.95,NNW,348,0.0,0.0,94,0.02,BKN,,0.31,84.0,WeatherDisplay:10.37,2013-04-23 21:58:00,
2013-04-23 17:03:00,37.9,36.3,29.95,North,358,1.1,0.0,94,0.02,BKN,,0.31,76.0,WeatherDisplay:10.37,2013-04-23 22:03:00,
2013-04-23 17:08:00,38.0,36.4,29.96,North,349,3.5,0.0,94,0.02,BKN,,0.31,95.0,WeatherDisplay:10.37,2013-04-23 22:08:00,
2013-04-23 17:13:00,38.0,36.4,29.96,West,279,0.0,0.0,94,0.02,BKN,,0.31,109.0,WeatherDisplay:10.37,2013-04-23 22:13:00,
2013-04-23 17:18:00,38.0,36.4,29.96,North,354,3.5,3.5,94,0.02,BKN,,0.31,70.0,WeatherDisplay:10.37,2013-04-23 22:18:00,
2013-04-23 17:23:00,38.0,36.4,29.96,NW,310,0.0,0.0,94,0.02,BKN,,0.31,69.0,WeatherDisplay:10.37,2013-04-23 22:23:00,
2013-04-23 17:28:00,38.1,36.5,29.96,WNW,284,3.5,3.5,94,0.01,BKN,,0.31,86.0,WeatherDisplay:10.37,2013-04-23 22:28:00,
2013-04-23 17:33:00,38.2,36.6,29.96,NW,310,0.0,0.0,94,0.01,BKN,,0.31,65.0,WeatherDisplay:10.37,2013-04-23 22:33:00,
2013-04-23 17:38:00,38.2,36.6,29.96,NW,311,0.0,0.0,94,0.01,BKN,,0.31,56.0,WeatherDisplay:10.37,2013-04-23 22:38:00,
2013-04-23 17:43:00,38.4,36.8,29.95,NW,311,0.0,0.0,94,0.02,RA,,0.32,79.0,WeatherDisplay:10.37,2013-04-23 22:43:00,
2013-04-23 17:48:00,38.6,37.0,29.95,NNW,344,0.0,0.0,94,0.01,RA,,0.32,76.0,WeatherDisplay:10.37,2013-04-23 22:48:00,
2013-04-23 17:53:00,38.8,37.2,29.95,NNW,340,0.0,0.0,94,0.01,BKN,,0.32,70.0,WeatherDisplay:10.37,2013-04-23 22:53:00,
2013-04-23 17:58:00,38.7,37.1,29.95,North,350,0.0,0.0,94,0.01,BKN,,0.32,56.0,WeatherDisplay:10.37,2013-04-23 22:58:00,
2013-04-23 18:03:00,38.7,37.1,29.95,NW,306,0.0,0.0,94,0.01,BKN,,0.32,53.0,WeatherDisplay:10.37,2013-04-23 23:03:00,
2013-04-23 18:08:00,38.6,37.0,29.95,NW,321,1.1,0.0,94,0.01,BKN,,0.32,49.0,WeatherDisplay:10.37,2013-04-23 23:08:00,
2013-04-23 18:13:00,38.5,36.9,29.95,NNW,337,0.0,0.5,94,0.01,BKN,,0.32,39.0,WeatherDisplay:10.37,2013-04-23 23:13:00,
2013-04-23 18:18:00,38.5,36.7,29.95,NNW,337,0.0,0.0,93,0.01,BKN,,0.32,37.0,WeatherDisplay:10.37,2013-04-23 23:18:00,
2013-04-23 18:23:00,38.5,36.9,29.96,North,1,1.1,1.1,94,0.01,BKN,,0.32,30.0,WeatherDisplay:10.37,2013-04-23 23:23:00,
2013-04-23 18:28:00,38.5,36.7,29.96,North,351,2.3,0.0,93,0.01,BKN,,0.32,32.0,WeatherDisplay:10.37,2013-04-23 23:28:00,
2013-04-23 18:33:00,38.6,36.8,29.96,NNE,31,0.0,0.0,93,0.01,BKN,,0.32,28.0,WeatherDisplay:10.37,2013-04-23 23:33:00,
2013-04-23 18:38:00,38.6,36.8,29.95,NNW,335,3.5,3.5,93,0.01,BKN,,0.32,23.0,WeatherDisplay:10.37,2013-04-23 23:38:00,
2013-04-23 18:43:00,38.6,36.8,29.96,NNW,346,1.1,1.1,93,0.00,BKN,,0.32,19.0,WeatherDisplay:10.37,2013-04-23 23:43:00,
2013-04-23 18:48:00,38.6,36.8,29.96,NNW,330,2.3,0.0,93,0.00,BKN,,0.32,19.0,WeatherDisplay:10.37,2013-04-23 23:48:00,
2013-04-23 18:53:00,38.5,36.4,29.96,NW,325,0.0,0.1,92,0.00,BKN,,0.32,19.0,WeatherDisplay:10.37,2013-04-23 23:53:00,
2013-04-23 18:58:00,38.6,36.5,29.96,NW,325,1.1,0.0,92,0.00,BKN,,0.32,16.0,WeatherDisplay:10.37,2013-04-23 23:58:00,
2013-04-23 19:03:00,38.6,36.5,29.97,NW,325,0.0,0.0,92,0.00,BKN,,0.32,11.0,WeatherDisplay:10.37,2013-04-24 00:03:00,
2013-04-23 19:08:00,38.7,36.6,29.96,NW,325,0.0,0.0,92,0.00,BKN,,0.32,9.0,WeatherDisplay:10.37,2013-04-24 00:08:00,
2013-04-23 19:13:00,38.7,36.6,29.97,WNW,298,0.0,0.0,92,0.00,BKN,,0.32,5.0,WeatherDisplay:10.37,2013-04-24 00:13:00,
2013-04-23 19:18:00,38.7,36.6,29.97,WNW,298,0.0,0.0,92,0.00,OVC,,0.32,0.0,WeatherDisplay:10.37,2013-04-24 00:18:00,
2013-04-23 19:23:00,38.8,36.7,29.97,WNW,298,0.0,0.0,92,0.00,BKN,,0.32,5.0,WeatherDisplay:10.37,2013-04-24 00:23:00,
2013-04-23 19:28:00,38.8,36.7,29.97,WNW,298,0.0,0.0,92,0.00,OVC,,0.32,0.0,WeatherDisplay:10.37,2013-04-24 00:28:00,
2013-04-23 19:33:00,38.8,36.7,29.97,WNW,302,0.0,0.0,92,0.00,OVC,,0.32,0.0,WeatherDisplay:10.37,2013-04-24 00:33:00,
2013-04-23 19:38:00,38.7,36.6,29.97,NNW,341,1.0,1.0,92,0.00,OVC,,0.32,0.0,WeatherDisplay:10.37,2013-04-24 00:38:00,
2013-04-23 19:43:00,38.7,36.3,29.98,NNW,341,0.0,0.0,91,0.00,OVC,,0.32,0.0,WeatherDisplay:10.37,2013-04-24 00:43:00,
2013-04-23 19:48:00,38.6,36.2,29.98,NW,323,0.0,0.0,91,0.00,OVC,,0.32,0.0,WeatherDisplay:10.37,2013-04-24 00:48:00,
2013-04-23 19:53:00,38.5,36.1,29.98,NW,326,0.0,0.0,91,0.00,OVC,,0.32,0.0,WeatherDisplay:10.37,2013-04-24 00:53:00,
2013-04-23 19:58:00,38.6,35.9,29.97,NW,326,0.0,0.0,90,0.00,OVC,,0.32,0.0,WeatherDisplay:10.37,2013-04-24 00:58:00,
2013-04-23 20:03:00,38.6,35.9,29.98,NW,326,0.0,0.0,90,0.00,CLR,,0.32,0.0,WeatherDisplay:10.37,2013-04-24 01:03:00,
2013-04-23 20:08:00,38.7,36.0,29.98,NW,326,0.0,0.0,90,0.00,CLR,,0.32,0.0,WeatherDisplay:10.37,2013-04-24 01:08:00,
2013-04-23 20:13:00,38.7,35.7,29.99,NW,326,0.0,0.0,89,0.00,CLR,,0.32,0.0,WeatherDisplay:10.37,2013-04-24 01:13:00,
2013-04-23 20:18:00,38.7,35.7,29.99,NW,326,1.1,1.1,89,0.00,CLR,,0.32,0.0,WeatherDisplay:10.37,2013-04-24 01:18:00,
2013-04-23 20:23:00,38.8,35.8,29.98,NW,326,0.0,0.0,89,0.00,CLR,,0.32,0.0,WeatherDisplay:10.37,2013-04-24 01:23:00,
2013-04-23 20:28:00,38.8,35.6,29.98,NNW,344,0.0,0.0,88,0.00,CLR,,0.32,0.0,WeatherDisplay:10.37,2013-04-24 01:28:00,
2013-04-23 20:33:00,38.9,35.4,29.99,NNW,327,0.0,0.0,87,0.00,CLR,,0.32,0.0,WeatherDisplay:10.37,2013-04-24 01:33:00,
2013-04-23 20:38:00,38.9,35.4,29.99,NNW,327,0.0,0.0,87,0.00,CLR,,0.32,0.0,WeatherDisplay:10.37,2013-04-24 01:38:00,
2013-04-23 20:43:00,39.0,35.5,29.98,NNW,329,1.1,1.1,87,0.00,CLR,,0.32,0.0,WeatherDisplay:10.37,2013-04-24 01:43:00,
2013-04-23 20:48:00,38.9,35.1,29.99,NNW,333,0.0,0.0,86,0.00,CLR,,0.32,0.0,WeatherDisplay:10.37,2013-04-24 01:48:00,
2013-04-23 20:53:00,39.0,35.2,29.99,NNW,333,0.0,0.0,86,0.00,CLR,,0.32,0.0,WeatherDisplay:10.37,2013-04-24 01:53:00,
2013-04-23 20:58:00,39.0,34.9,29.99,NNW,348,2.3,2.3,85,0.00,CLR,,0.32,0.0,WeatherDisplay:10.37,2013-04-24 01:58:00,
2013-04-23 21:03:00,39.0,34.9,29.99,NE,46,0.0,0.0,85,0.00,CLR,,0.32,0.0,WeatherDisplay:10.37,2013-04-24 02:03:00,
2013-04-23 21:08:00,39.0,34.9,29.99,NNW,331,1.0,0.0,85,0.00,CLR,,0.32,0.0,WeatherDisplay:10.37,2013-04-24 02:08:00,
2013-04-23 21:14:00,39.0,34.6,29.99,NNW,330,3.5,0.0,84,0.00,CLR,,0.32,0.0,WeatherDisplay:10.37,2013-04-24 02:14:00,
2013-04-23 21:19:00,39.1,34.7,29.99,NW,319,0.0,0.2,84,0.00,CLR,,0.32,0.0,WeatherDisplay:10.37,2013-04-24 02:19:00,
2013-04-23 21:24:00,39.1,34.7,29.99,North,7,0.0,0.0,84,0.00,CLR,,0.32,0.0,WeatherDisplay:10.37,2013-04-24 02:24:00,
2013-04-23 21:29:00,39.1,34.4,29.99,North,1,3.5,3.5,83,0.00,CLR,,0.32,0.0,WeatherDisplay:10.37,2013-04-24 02:29:00,
2013-04-23 21:34:00,39.0,34.3,29.98,NNW,340,2.3,0.0,83,0.00,CLR,,0.32,0.0,WeatherDisplay:10.37,2013-04-24 02:34:00,
2013-04-23 21:40:00,39.0,34.0,29.98,NNW,336,0.0,3.0,82,0.00,CLR,,0.32,0.0,WeatherDisplay:10.37,2013-04-24 02:40:00,
2013-04-23 21:45:00,39.0,33.7,29.98,NW,321,4.6,4.6,81,0.00,CLR,,0.32,0.0,WeatherDisplay:10.37,2013-04-24 02:45:00,
2013-04-23 21:50:00,39.0,33.7,29.98,NNW,331,1.1,0.0,81,0.00,CLR,,0.32,0.0,WeatherDisplay:10.37,2013-04-24 02:50:00,
2013-04-23 21:55:00,39.0,33.7,29.98,NNW,339,1.1,0.0,81,0.00,CLR,,0.32,0.0,WeatherDisplay:10.37,2013-04-24 02:55:00,
2013-04-23 22:00:00,38.9,33.3,29.98,NW,319,1.0,0.0,80,0.00,CLR,,0.32,0.0,WeatherDisplay:10.37,2013-04-24 03:00:00,
2013-04-23 22:05:00,39.0,33.4,29.98,NW,321,2.3,2.3,80,0.00,CLR,,0.32,0.0,WeatherDisplay:10.37,2013-04-24 03:05:00,
2013-04-23 22:10:00,39.0,33.7,29.98,NW,326,1.0,0.0,81,0.00,CLR,,0.32,0.0,WeatherDisplay:10.37,2013-04-24 03:10:00,
2013-04-23 22:15:00,38.9,33.6,29.98,NW,325,2.0,2.0,81,0.00,CLR,,0.32,0.0,WeatherDisplay:10.37,2013-04-24 03:15:00,
2013-04-23 22:21:00,38.9,33.6,29.99,WNW,291,3.5,3.5,81,0.00,CLR,,0.32,0.0,WeatherDisplay:10.37,2013-04-24 03:21:00,
2013-04-23 22:27:00,38.9,33.6,29.98,WNW,296,1.0,1.0,81,0.00,CLR,,0.32,0.0,WeatherDisplay:10.37,2013-04-24 03:27:00,
2013-04-23 22:32:00,39.0,33.7,29.98,NW,320,5.0,5.0,81,0.00,CLR,,0.32,0.0,WeatherDisplay:10.37,2013-04-24 03:32:00,
2013-04-23 22:37:00,38.9,33.3,29.98,North,350,1.1,1.1,80,0.00,CLR,,0.32,0.0,WeatherDisplay:10.37,2013-04-24 03:37:00,
2013-04-23 22:42:00,39.0,33.4,29.98,NNW,330,0.0,0.0,80,0.00,CLR,,0.32,0.0,WeatherDisplay:10.37,2013-04-24 03:42:00,
2013-04-23 22:48:00,39.0,33.0,29.98,North,358,9.2,9.2,79,0.00,CLR,,0.32,0.0,WeatherDisplay:10.37,2013-04-24 03:48:00,
2013-04-23 22:54:00,39.0,33.4,29.98,WSW,248,2.3,0.0,80,0.00,CLR,,0.32,0.0,WeatherDisplay:10.37,2013-04-24 03:54:00,
2013-04-23 22:59:00,39.0,33.0,29.98,NNW,330,3.5,3.5,79,0.00,CLR,,0.32,0.0,WeatherDisplay:10.37,2013-04-24 03:59:00,
2013-04-23 23:01:00,39.0,33.0,29.98,NW,325,1.1,0.0,79,0.00,CLR,,0.32,0.0,WeatherDisplay:10.37,2013-04-24 04:01:00,
2013-04-23 23:04:00,38.9,32.9,29.98,NNW,331,1.1,1.1,79,0.00,CLR,,0.32,0.0,WeatherDisplay:10.37,2013-04-24 04:04:00,
2013-04-23 23:09:00,38.9,32.6,29.98,North,5,3.5,3.5,78,0.00,CLR,,0.32,0.0,WeatherDisplay:10.37,2013-04-24 04:09:00,
2013-04-23 23:14:00,38.9,32.6,29.97,NNE,12,1.1,0.0,78,0.00,CLR,,0.32,0.0,WeatherDisplay:10.37,2013-04-24 04:14:00,
2013-04-23 23:19:00,39.0,33.0,29.97,North,349,0.0,0.0,79,0.00,CLR,,0.32,0.0,WeatherDisplay:10.37,2013-04-24 04:19:00,
2013-04-23 23:24:00,39.0,33.4,29.98,NNW,327,3.5,3.5,80,0.00,CLR,,0.32,0.0,WeatherDisplay:10.37,2013-04-24 04:24:00,
2013-04-23 23:29:00,38.9,33.3,29.98,North,350,0.0,0.0,80,0.00,CLR,,0.32,0.0,WeatherDisplay:10.37,2013-04-24 04:29:00,
2013-04-23 23:34:00,38.8,33.2,29.99,SW,226,1.1,0.0,80,0.00,CLR,,0.32,0.0,WeatherDisplay:10.37,2013-04-24 04:34:00,
2013-04-23 23:39:00,38.8,33.2,29.99,NNE,31,0.0,0.0,80,0.00,CLR,,0.32,0.0,WeatherDisplay:10.37,2013-04-24 04:39:00,
2013-04-23 23:44:00,38.8,33.2,29.99,North,350,1.1,1.1,80,0.00,CLR,,0.32,0.0,WeatherDisplay:10.37,2013-04-24 04:44:00,
2013-04-23 23:49:00,38.7,32.7,29.99,North,350,0.0,0.0,79,0.00,CLR,,0.32,0.0,WeatherDisplay:10.37,2013-04-24 04:49:00,
2013-04-23 23:54:00,38.7,33.1,29.99,NNW,327,0.0,0.0,80,0.00,CLR,,0.32,0.0,WeatherDisplay:10.37,2013-04-24 04:54:00,
2013-04-23 23:59:00,38.5,32.6,29.98,NE,42,3.5,3.5,79,0.00,CLR,,0.32,0.0,WeatherDisplay:10.37,2013-04-24 04:59:00,